Time,TemperatureF,DewpointF,PressureIn,WindDirection,WindDirectionDegrees,WindSpeedMPH,WindSpeedGustMPH,Humidity,HourlyPrecipIn,Conditions,Clouds,dailyrainin,SolarRadiationWatts/m^2,SoftwareType,DateUTC
2013-07-10 00:00:00,73.0,72.0,-100.00,SSW,202,7.0,-999.0,96,-99.99,,,-99.99,0.000000,,2013-07-10 04:00:00,
2013-07-10 00:43:00,73.0,72.0,-100.00,SSW,202,7.0,-999.0,96,-99.99,,,-99.99,0.000000,,2013-07-10 04:43:00,
2013-07-10 00:52:00,73.0,72.0,-100.00,SSW,202,7.0,-999.0,96,-99.99,,,-99.99,0.000000,,2013-07-10 04:52:00,
2013-07-10 01:00:00,73.0,72.0,-100.00,SSW,202,5.0,-999.0,97,-99.99,,,-99.99,0.000000,,2013-07-10 05:00:00,
2013-07-10 01:42:00,73.0,72.0,-100.00,SSW,202,5.0,-999.0,97,-99.99,,,-99.99,0.000000,,2013-07-10 05:42:00,
2013-07-10 01:53:00,73.0,72.0,-100.00,SSW,202,5.0,-999.0,97,-99.99,,,-99.99,0.000000,,2013-07-10 05:53:00,
2013-07-10 02:00:00,73.0,72.0,-100.00,SSW,202,6.0,-999.0,97,-99.99,,,-99.99,0.000000,,2013-07-10 06:00:00,
2013-07-10 02:42:00,73.0,72.0,-100.00,SSW,202,6.0,-999.0,97,-99.99,,,-99.99,0.000000,,2013-07-10 06:42:00,
2013-07-10 02:52:00,73.0,72.0,-100.00,SSW,202,6.0,-999.0,97,-99.99,,,-99.99,0.000000,,2013-07-10 06:52:00,
2013-07-10 03:00:00,73.0,72.0,-100.00,SW,225,6.0,-999.0,97,-99.99,,,-99.99,0.000000,,2013-07-10 07:00:00,
2013-07-10 03:43:00,73.0,72.0,-100.00,SW,225,6.0,-999.0,97,-99.99,,,-99.99,0.000000,,2013-07-10 07:43:00,
2013-07-10 03:53:00,73.0,72.0,-100.00,SW,225,6.0,-999.0,97,-99.99,,,-99.99,0.000000,,2013-07-10 07:53:00,
2013-07-10 04:00:00,74.0,72.0,-100.00,SW,225,6.0,-999.0,96,-99.99,,,-99.99,0.000000,,2013-07-10 08:00:00,
2013-07-10 04:42:00,74.0,72.0,-100.00,SW,225,6.0,-999.0,96,-99.99,,,-99.99,0.000000,,2013-07-10 08:42:00,
2013-07-10 04:53:00,74.0,72.0,-100.00,SW,225,6.0,-999.0,96,-99.99,,,-99.99,0.000000,,2013-07-10 08:53:00,
2013-07-10 05:00:00,74.0,72.0,-100.00,WSW,247,6.0,-999.0,94,-99.99,,,-99.99,0.000000,,2013-07-10 09:00:00,
2013-07-10 05:43:00,74.0,72.0,-100.00,WSW,247,6.0,-999.0,94,-99.99,,,-99.99,0.000000,,2013-07-10 09:43:00,
2013-07-10 05:53:00,74.0,72.0,-100.00,WSW,247,6.0,-999.0,94,-99.99,,,-99.99,0.000000,,2013-07-10 09:53:00,
2013-07-10 06:00:00,-999.0,-99.9,-100.00,WSW,247,6.0,-999.0,-999,-99.99,,,-99.99,,,2013-07-10 10:00:00,
2013-07-10 06:51:00,-999.0,-99.9,-100.00,WSW,247,6.0,-999.0,-999,-99.99,,,-99.99,,,2013-07-10 10:51:00,
2013-07-10 07:00:00,72.0,70.0,-100.00,WSW,247,7.0,-999.0,93,-99.99,,,-99.99,29.000000,,2013-07-10 11:00:00,
2013-07-10 07:43:00,72.0,70.0,-100.00,WSW,247,7.0,-999.0,93,-99.99,,,-99.99,29.000000,,2013-07-10 11:43:00,
2013-07-10 07:52:00,72.0,70.0,-100.00,WSW,247,7.0,-999.0,93,-99.99,,,-99.99,29.000000,,2013-07-10 11:52:00,
2013-07-10 08:00:00,74.0,70.0,-100.00,WSW,247,9.0,-999.0,89,-99.99,,,-99.99,106.720001,,2013-07-10 12:00:00,
2013-07-10 08:43:00,74.0,70.0,-100.00,WSW,247,9.0,-999.0,89,-99.99,,,-99.99,106.720001,,2013-07-10 12:43:00,
2013-07-10 08:53:00,74.0,70.0,-100.00,WSW,247,9.0,-999.0,89,-99.99,,,-99.99,106.720001,,2013-07-10 12:53:00,
2013-07-10 09:00:00,76.0,71.0,-100.00,WSW,247,9.0,-999.0,84,-99.99,,,-99.99,233.160004,,2013-07-10 13:00:00,
2013-07-10 09:43:00,76.0,71.0,-100.00,WSW,247,9.0,-999.0,84,-99.99,,,-99.99,233.160004,,2013-07-10 13:43:00,
2013-07-10 09:52:00,76.0,71.0,-100.00,WSW,247,9.0,-999.0,84,-99.99,,,-99.99,233.160004,,2013-07-10 13:52:00,
2013-07-10 10:00:00,77.0,71.0,-100.00,West,270,8.0,-999.0,81,-99.99,,,-99.99,338.720001,,2013-07-10 14:00:00,
2013-07-10 10:43:00,77.0,71.0,-100.00,West,270,8.0,-999.0,81,-99.99,,,-99.99,338.720001,,2013-07-10 14:43:00,
2013-07-10 10:53:00,77.0,71.0,-100.00,West,270,8.0,-999.0,81,-99.99,,,-99.99,338.720001,,2013-07-10 14:53:00,
2013-07-10 11:00:00,79.0,70.0,-100.00,West,270,10.0,-999.0,74,-99.99,,,-99.99,584.640015,,2013-07-10 15:00:00,
2013-07-10 11:43:00,79.0,70.0,-100.00,West,270,10.0,-999.0,74,-99.99,,,-99.99,584.640015,,2013-07-10 15:43:00,
2013-07-10 11:52:00,79.0,70.0,-100.00,West,270,10.0,-999.0,74,-99.99,,,-99.99,584.640015,,2013-07-10 15:52:00,
2013-07-10 12:00:00,80.0,71.0,-100.00,WSW,247,10.0,-999.0,72,-99.99,,,-99.99,497.640015,,2013-07-10 16:00:00,
2013-07-10 12:44:00,80.0,71.0,-100.00,WSW,247,10.0,-999.0,72,-99.99,,,-99.99,497.640015,,2013-07-10 16:44:00,
2013-07-10 12:53:00,80.0,71.0,-100.00,WSW,247,10.0,-999.0,72,-99.99,,,-99.99,497.640015,,2013-07-10 16:53:00,
2013-07-10 13:00:00,81.0,70.0,-100.00,West,270,11.0,-999.0,68,-99.99,,,-99.99,658.880005,,2013-07-10 17:00:00,
2013-07-10 13:43:00,81.0,70.0,-100.00,West,270,11.0,-999.0,68,-99.99,,,-99.99,658.880005,,2013-07-10 17:43:00,
2013-07-10 13:53:00,81.0,70.0,-100.00,West,270,11.0,-999.0,68,-99.99,,,-99.99,658.880005,,2013-07-10 17:53:00,
2013-07-10 14:00:00,82.0,67.0,-100.00,WNW,292,13.0,-999.0,60,-99.99,,,-99.99,751.679993,,2013-07-10 18:00:00,
2013-07-10 14:44:00,82.0,67.0,-100.00,WNW,292,13.0,-999.0,60,-99.99,,,-99.99,751.679993,,2013-07-10 18:44:00,
2013-07-10 14:53:00,82.0,67.0,-100.00,WNW,292,13.0,-999.0,60,-99.99,,,-99.99,751.679993,,2013-07-10 18:53:00,
2013-07-10 15:00:00,81.0,65.0,-100.00,WNW,292,14.0,-999.0,58,-99.99,,,-99.99,795.760010,,2013-07-10 19:00:00,
2013-07-10 15:42:00,81.0,65.0,-100.00,WNW,292,14.0,-999.0,58,-99.99,,,-99.99,795.760010,,2013-07-10 19:42:00,
2013-07-10 15:53:00,81.0,65.0,-100.00,WNW,292,14.0,-999.0,58,-99.99,,,-99.99,795.760010,,2013-07-10 19:53:00,
2013-07-10 16:00:00,81.0,62.0,-100.00,NW,315,14.0,-999.0,53,-99.99,,,-99.99,696.000000,,2013-07-10 20:00:00,
2013-07-10 16:43:00,81.0,62.0,-100.00,NW,315,14.0,-999.0,53,-99.99,,,-99.99,696.000000,,2013-07-10 20:43:00,
2013-07-10 16:52:00,81.0,62.0,-100.00,NW,315,14.0,-999.0,53,-99.99,,,-99.99,696.000000,,2013-07-10 20:52:00,
2013-07-10 17:00:00,79.0,59.0,-100.00,NW,315,13.0,-999.0,49,-99.99,,,-99.99,676.280029,,2013-07-10 21:00:00,
2013-07-10 17:42:00,79.0,59.0,-100.00,NW,315,13.0,-999.0,49,-99.99,,,-99.99,676.280029,,2013-07-10 21:42:00,
2013-07-10 17:52:00,79.0,59.0,-100.00,NW,315,13.0,-999.0,49,-99.99,,,-99.99,676.280029,,2013-07-10 21:52:00,
2013-07-10 18:00:00,78.0,55.0,-100.00,NW,315,13.0,-999.0,45,-99.99,,,-99.99,545.200012,,2013-07-10 22:00:00,
2013-07-10 18:43:00,78.0,55.0,-100.00,NW,315,13.0,-999.0,45,-99.99,,,-99.99,545.200012,,2013-07-10 22:43:00,
2013-07-10 18:53:00,78.0,55.0,-100.00,NW,315,13.0,-999.0,45,-99.99,,,-99.99,545.200012,,2013-07-10 22:53:00,
2013-07-10 19:00:00,77.0,53.0,-100.00,NW,315,12.0,-999.0,43,-99.99,,,-99.99,402.519989,,2013-07-10 23:00:00,
2013-07-10 19:52:00,77.0,53.0,-100.00,NW,315,12.0,-999.0,43,-99.99,,,-99.99,402.519989,,2013-07-10 23:52:00,
2013-07-10 20:00:00,75.0,55.0,-100.00,NW,315,11.0,-999.0,50,-99.99,,,-99.99,203.000000,,2013-07-11 00:00:00,
2013-07-10 20:43:00,75.0,55.0,-100.00,NW,315,11.0,-999.0,50,-99.99,,,-99.99,203.000000,,2013-07-11 00:43:00,
2013-07-10 20:52:00,75.0,55.0,-100.00,NW,315,11.0,-999.0,50,-99.99,,,-99.99,203.000000,,2013-07-11 00:52:00,
2013-07-10 21:00:00,72.0,56.0,-100.00,NW,315,8.0,-999.0,56,-99.99,,,-99.99,71.919998,,2013-07-11 01:00:00,
2013-07-10 21:43:00,72.0,56.0,-100.00,NW,315,8.0,-999.0,56,-99.99,,,-99.99,71.919998,,2013-07-11 01:43:00,
2013-07-10 21:52:00,72.0,56.0,-100.00,NW,315,8.0,-999.0,56,-99.99,,,-99.99,71.919998,,2013-07-11 01:52:00,
2013-07-10 22:00:00,66.0,56.0,-100.00,NW,315,2.0,-999.0,69,-99.99,,,-99.99,3.480000,,2013-07-11 02:00:00,
2013-07-10 22:44:00,66.0,56.0,-100.00,NW,315,2.0,-999.0,69,-99.99,,,-99.99,3.480000,,2013-07-11 02:44:00,
2013-07-10 22:53:00,66.0,56.0,-100.00,NW,315,2.0,-999.0,69,-99.99,,,-99.99,3.480000,,2013-07-11 02:53:00,
2013-07-10 23:00:00,63.0,57.0,-100.00,NW,315,1.0,-999.0,79,-99.99,,,-99.99,0.000000,,2013-07-11 03:00:00,
2013-07-10 23:42:00,63.0,57.0,-100.00,NW,315,1.0,-999.0,79,-99.99,,,-99.99,0.000000,,2013-07-11 03:42:00,
2013-07-10 23:53:00,63.0,57.0,-100.00,NW,315,1.0,-999.0,79,-99.99,,,-99.99,0.000000,,2013-07-11 03:53:00,